TimeWET,TemperatureF,Dew PointF,Humidity,Sea Level PressureIn,VisibilityMPH,Wind Direction,Wind SpeedMPH,Gust SpeedMPH,PrecipitationIn,Events,Conditions,WindDirDegrees,DateUTC
12:00 AM,54,48,73,30.02,6,SE,3.5,,,,,140,2012-11-16 00:00:00
12:00 AM,53.6,48.2,82,30.04,-9999.0,SE,3.5,-,N/A,,Clear,140,2012-11-16 00:00:00
1:00 AM,53.6,48.2,82,30.04,-9999.0,SSE,2.3,-,N/A,,Clear,150,2012-11-16 01:00:00
2:00 AM,51.8,48.2,88,30.04,-9999.0,Calm,Calm,-,N/A,,Clear,0,2012-11-16 02:00:00
3:00 AM,51,47,82,29.99,6,ESE,2.3,,,,,120,2012-11-16 03:00:00
3:00 AM,51.8,46.4,82,30.01,-9999.0,ESE,2.3,-,N/A,,Clear,120,2012-11-16 03:00:00
4:00 AM,50.0,44.6,82,30.01,-9999.0,SE,3.5,-,N/A,,Clear,130,2012-11-16 04:00:00
5:00 AM,50.0,44.6,82,30.01,-9999.0,SE,3.5,-,N/A,,Clear,130,2012-11-16 05:00:00
6:00 AM,48,44,82,29.98,6,SSE,4.6,,,,,160,2012-11-16 06:00:00
6:00 AM,48.2,44.6,87,29.95,-9999.0,SSE,4.6,-,N/A,,Clear,160,2012-11-16 06:00:00
7:00 AM,46.4,42.8,87,29.98,-9999.0,SE,2.3,-,N/A,,Clear,130,2012-11-16 07:00:00
8:00 AM,48.2,44.6,87,29.98,-9999.0,ESE,3.5,-,N/A,,Clear,120,2012-11-16 08:00:00
9:00 AM,59,48,58,29.97,6,SSW,2.3,,,,Scattered Clouds,210,2012-11-16 09:00:00
9:00 AM,59.0,48.2,67,29.98,-9999.0,SSW,2.3,-,N/A,,Clear,210,2012-11-16 09:00:00
10:00 AM,62.6,50.0,63,30.01,-9999.0,WSW,3.5,-,N/A,,Clear,240,2012-11-16 10:00:00
11:00 AM,66.2,51.8,60,29.98,-9999.0,West,2.3,-,N/A,,Clear,260,2012-11-16 11:00:00
12:00 PM,67,52,49,29.91,6,NNW,4.6,,,,Clear,330,2012-11-16 12:00:00
12:00 PM,66.2,51.8,60,29.95,-9999.0,NNW,6.9,-,N/A,,Clear,330,2012-11-16 12:00:00
1:00 PM,69.8,48.2,46,29.95,-9999.0,West,8.1,-,N/A,,Clear,280,2012-11-16 13:00:00
2:00 PM,68.0,46.4,46,29.92,-9999.0,West,8.1,-,N/A,,Clear,270,2012-11-16 14:00:00
3:00 PM,68,46,34,29.87,6,West,4.6,,,,Scattered Clouds,260,2012-11-16 15:00:00
3:00 PM,68.0,46.4,46,29.92,-9999.0,West,4.6,-,N/A,,Clear,260,2012-11-16 15:00:00
4:00 PM,66.2,50.0,56,29.92,-9999.0,WNW,3.5,-,N/A,,Clear,290,2012-11-16 16:00:00
5:00 PM,64.4,48.2,56,29.92,-9999.0,NW,2.3,-,N/A,,Clear,320,2012-11-16 17:00:00
6:00 PM,60,50,61,29.91,6,Calm,Calm,,,,Clear,,2012-11-16 18:00:00
6:00 PM,60.8,50.0,68,29.95,-9999.0,Calm,Calm,-,N/A,,Clear,0,2012-11-16 18:00:00
7:00 PM,59.0,50.0,72,29.95,-9999.0,SSW,2.3,-,N/A,,Clear,200,2012-11-16 19:00:00
8:00 PM,59.0,50.0,72,29.95,-9999.0,SSE,3.5,-,N/A,,Clear,160,2012-11-16 20:00:00
9:00 PM,58,50,68,29.92,6,South,3.5,,,,Clear,180,2012-11-16 21:00:00
9:00 PM,59.0,50.0,72,29.95,-9999.0,South,3.5,-,N/A,,Clear,180,2012-11-16 21:00:00
10:00 PM,57.2,50.0,77,29.95,-9999.0,South,2.3,-,N/A,,Clear,190,2012-11-16 22:00:00
11:00 PM,57.2,50.0,77,29.95,6.2,South,3.5,-,N/A,,Scattered Clouds,180,2012-11-16 23:00:00